Tracking 19193 objects as of 22-Jun-2018
HD Live streaming from Space Station
objects crossing your sky now

INTEGRAL

Track INTEGRAL now!
INTEGRAL is classified as:


NORAD ID: 27540
Int'l Code: 2002-048A
Perigee: 5,595.7 km
Apogee: 143,833.2 km
Inclination: 48.8 °
Period: 3,829.8 minutes
Semi major axis: 81085 km
RCS: 5.0118 m2 (large)
Launch date: October 17, 2002
Source: European Space Agency (ESA)
Launch site: TYURATAM MISSILE AND SPACE COMPLEX (TTMTR)

Astronomical satellite for observing the gamma-ray sky.
aabbcc
Your satellite tracking list
Your tracking list is empty




NASA's NSSDC Master Catalog

Two Line Element Set (TLE):
1 27540U 02048A   18173.52057697  .00000586  00000-0  00000+0 0  9991
2 27540  48.8062 168.1696 8524189 268.3850   0.3099  0.37600081 15691
Source of the keplerian elements: AFSPC